DateTime,DeltaTime,Roll,TargetAngle,Position,Power
2022-06-03 10:41:19.361,0,-0.74,-4.8,8,45.46
2022-06-03 10:41:19.471,0.109997391700745,-0.34,-2.85,4,36.2
2022-06-03 10:41:19.585,0.223997980356216,-0.2,-3.43,3,23.91
2022-06-03 10:41:19.701,0.340000167489052,-0.09,-3.22,2,23.03
2022-06-03 10:41:19.815,0.454000756144524,-0.0399999999999999,-3.25,0,20.38
2022-06-03 10:41:19.930,0.568997114896774,0.12,-2.15,2,6.59
2022-06-03 10:41:20.044,0.682997703552246,-0.27,-6.02,5,40.2
2022-06-03 10:41:20.159,0.798004120588303,0.25,-0.13,7,18.79
2022-06-03 10:41:20.274,0.913000479340553,-0.1,-5.26,9,58.74
2022-06-03 10:41:20.389,1.0279968380928,-0.62,-7.86,8,68.25
2022-06-03 10:41:20.503,1.14199742674828,-0.57,-5.25,7,44.19
2022-06-03 10:41:20.617,1.25599801540375,-0.08,-1.47,5,26.19
2022-06-03 10:41:20.732,1.3710044324398,-0.0599999999999999,-3.5,2,33.39
2022-06-03 10:41:20.847,1.48600079119205,-0.27,-5.21,2,27.69
2022-06-03 10:41:20.963,1.60200297832489,-0.28,-4.42,1,26.1
2022-06-03 10:41:21.076,1.71499773859978,-0.26,-4.19,3,21.55
2022-06-03 10:41:21.187,1.82600095868111,-0.52,-6.41,7,44.77
2022-06-03 10:41:21.301,1.94000154733658,0.0600000000000001,-0.54,8,30.72
2022-06-03 10:41:21.416,2.05499790608883,-0.1,-4.38,9,58.08
2022-06-03 10:41:21.531,2.17000432312489,-0.95,-10.62,8,81.92
2022-06-03 10:41:21.646,2.28500068187714,-1.05,-7.66,5,52.63
2022-06-03 10:41:21.761,2.39999704062939,-0.98,-6.62,3,37.6
2022-06-03 10:41:21.876,2.51500345766544,-1.12,-8.11,1,41.42
2022-06-03 10:41:21.990,2.62900404632092,-1.19,-7.99,1,32.49
2022-06-03 10:41:22.105,2.74400040507317,-1.01,-6.26,3,27.43
2022-06-03 10:41:22.219,2.85800099372864,-0.92,-6.37,5,40.94
2022-06-03 10:41:22.334,2.97299735248089,-1.31,-9.87,7,66.54
2022-06-03 10:41:22.449,3.08800376951694,-0.84,-4.35,8,37.25
2022-06-03 10:41:22.563,3.20200435817242,-0.88,-6.77,8,60.05
2022-06-03 10:41:22.678,3.31700071692467,-1.22,-9.31,6,67.25
2022-06-03 10:41:22.792,3.43100130558014,-1.35,-8.93,3,51.96
2022-06-03 10:41:22.907,3.54599766433239,-1.3,-7.89,1,34.92
2022-06-03 10:41:23.018,3.65700088441372,-1.23,-7.57,3,29.57
2022-06-03 10:41:23.133,3.77199724316597,-1.34,-8.78,2,49.46
2022-06-03 10:41:23.247,3.88599783182144,-1.29,-7.9,4,34.09
2022-06-03 10:41:23.362,4.0010042488575,-1.29,-8.1,7,48.45
2022-06-03 10:41:23.477,4.11600060760975,-1.72,-11.53,8,76.85
2022-06-03 10:41:23.592,4.230996966362,-1.08,-4.59,8,38.68
2022-06-03 10:41:23.706,4.34499755501747,-0.26,-0.68,7,28.07
2022-06-03 10:41:23.821,4.46000397205353,-0.15,-3.43,4,42.75
2022-06-03 10:41:23.935,4.574004560709,-0.44,-6.19,2,40.21
2022-06-03 10:41:24.050,4.68900091946125,-0.43,-4.88,1,24.87
2022-06-03 10:41:24.165,4.8039972782135,-0.3,-3.86,1,19.76
2022-06-03 10:41:24.279,4.91799786686897,-0.37,-4.98,4,28.47
2022-06-03 10:41:24.394,5.03300428390503,-0.16,-3.05,6,32.89
2022-06-03 10:41:24.509,5.14800064265728,-0.11,-3.54,8,44.59
2022-06-03 10:41:24.623,5.26200123131275,-0.75,-8.85,8,78.77
2022-06-03 10:41:24.734,5.37300445139408,-0.64,-5.25,7,44.19
2022-06-03 10:41:24.848,5.48699498176575,-0.17,-1.89,6,28.3
2022-06-03 10:41:24.963,5.6020013988018,-0.0599999999999999,-3.11,3,35.94
2022-06-03 10:41:25.078,5.71699775755405,0.02,-2.93,1,20.56
2022-06-03 10:41:25.192,5.83099834620953,0.05,-2.95,1,15.41
2022-06-03 10:41:25.307,5.94599470496178,0.26,-1.48,3,11
2022-06-03 10:41:25.422,6.06100112199783,-0.18,-5.94,5,45.46
2022-06-03 10:41:25.537,6.17599748075008,0.28,-0.28,7,14.69
2022-06-03 10:41:25.651,6.28999806940556,0.24,-2.59,9,41.56
2022-06-03 10:41:25.766,6.40500448644161,-0.34,-7.11,8,69.39
2022-06-03 10:41:25.880,6.51899501681328,-0.6,-6.66,6,52.2
2022-06-03 10:41:25.995,6.63400143384933,-0.34,-3.5,5,28.29
2022-06-03 10:41:26.111,6.75000362098217,-0.24,-3.77,2,32.27
2022-06-03 10:41:26.225,6.86400420963764,-0.45,-5.89,2,29.65
2022-06-03 10:41:26.339,6.97799474000931,-0.44,-4.93,2,26.71
2022-06-03 10:41:26.454,7.09300115704536,-0.36,-4.29,4,25.43
2022-06-03 10:41:26.565,7.20400437712669,-0.61,-6.65,7,48.64
2022-06-03 10:41:26.679,7.31799490749836,-0.01,-0.79,9,25.02
2022-06-03 10:41:26.794,7.43300132453442,0.43,0.17,8,34.67
2022-06-03 10:41:26.909,7.54799768328667,-0.13,-6.25,7,61.24
2022-06-03 10:41:27.023,7.66199827194214,-0.44,-6.3,4,47.83
2022-06-03 10:41:27.138,7.7770046889782,-0.5,-5.48,3,29.97
2022-06-03 10:41:27.253,7.89200104773045,-0.45,-4.77,0,27.32
2022-06-03 10:41:27.367,8.00600163638592,-0.42,-4.72,2,14.99
2022-06-03 10:41:27.483,8.12200382351875,-0.36,-4.42,4,27.94
2022-06-03 10:41:27.597,8.23600441217422,-0.15,-2.93,6,28.87
2022-06-03 10:41:27.711,8.34999494254589,-0.72,-8.51,8,66.73
2022-06-03 10:41:27.827,8.46599712967873,-0.17,-1.56,14,28.81
2022-06-03 10:41:27.941,8.5799977183342,0.12,-1.63,8,66.54
2022-06-03 10:41:28.056,8.69500413537025,0,-3.87,5,38.88
2022-06-03 10:41:28.170,8.80900472402573,-0.13,-4.34,3,32.24
2022-06-03 10:41:28.281,8.91999788582325,0.0700000000000001,-2.21,1,15.77
2022-06-03 10:41:28.395,9.03399847447872,0.23,-1.77,2,9.45
2022-06-03 10:41:28.510,9.14899483323097,0.12,-3.37,3,25.88
2022-06-03 10:41:28.625,9.26400125026703,0.12,-2.86,6,25.45
2022-06-03 10:41:28.739,9.3780018389225,0.14,-2.76,8,39.82
2022-06-03 10:41:28.854,9.49299819767475,-0.26,-6.03,9,63.23
2022-06-03 10:41:28.969,9.60800461471081,-0.24,-4.16,8,47.41
2022-06-03 10:41:29.083,9.72199514508247,0.42,1.16,6,16.99
2022-06-03 10:41:29.198,9.83700156211853,0.53,-0.93,3,26.32
2022-06-03 10:41:29.313,9.95199792087078,0.43,-2.17,1,18.05
2022-06-03 10:41:29.427,10.0659985095263,0.31,-2.73,1,13.61
2022-06-03 10:41:29.542,10.1809948682785,0.45,-1.05,3,7.45
2022-06-03 10:41:29.656,10.294995456934,0.18,-3.86,5,33.87
2022-06-03 10:41:29.772,10.4109976440668,0.52,0.1,7,18.43
2022-06-03 10:41:29.886,10.5249982327223,0.75,0.44,10,29.73
2022-06-03 10:41:30.001,10.6400046497583,-0.13,-7.62,10,83.5
2022-06-03 10:41:30.111,10.7500020414591,-0.42,-6.19,6,57.89
2022-06-03 10:41:30.226,10.8649984002113,-0.26,-3.59,4,26.74
2022-06-03 10:41:30.342,10.9810005873442,-0.27,-4.35,1,30.07
2022-06-03 10:41:30.455,11.0939953476191,-0.37,-5.18,1,21.63
2022-06-03 10:41:30.571,11.2099975347519,-0.22,-3.51,1,16.64
2022-06-03 10:41:30.684,11.3230023533106,0,-2.38,4,13.62
2022-06-03 10:41:30.799,11.4379987120628,-0.55,-7.79,6,57.47
2022-06-03 10:41:30.914,11.5529950708151,-0.0599999999999999,-1.4,9,21.56
2022-06-03 10:41:31.029,11.6680014878511,-0.14,-4.21,9,57.05
2022-06-03 10:41:31.144,11.7829978466034,-0.57,-7.35,7,64.46
2022-06-03 10:41:31.259,11.8980042636395,-0.79,-7.23,7,49.75
2022-06-03 10:41:31.374,12.0130006223917,-0.79,-6.21,3,47.41
2022-06-03 10:41:31.488,12.1270012110472,-0.67,-5.3,2,24.21
2022-06-03 10:41:31.602,12.2410017997026,-0.84,-7.19,2,35.87
2022-06-03 10:41:31.717,12.3559981584549,-0.82,-6.27,4,30.9
2022-06-03 10:41:31.832,12.471004575491,-0.79,-6.1,6,42.04
2022-06-03 10:41:31.942,12.5810019671917,-1.14,-9.05,8,65.34
2022-06-03 10:41:32.056,12.6950025558472,-0.57,-2.96,9,35.1
2022-06-03 10:41:32.172,12.81100474298,0.13,0.21,8,30.61
2022-06-03 10:41:32.286,12.9249952733517,-0.0499999999999999,-4.33,6,51.96
2022-06-03 10:41:32.401,13.0400016903877,-0.21,-4.79,3,37.84
2022-06-03 10:41:32.516,13.15499804914,-0.19,-3.98,3,21.73
2022-06-03 10:41:32.631,13.270004466176,-0.19,-4.05,1,27.74
2022-06-03 10:41:32.745,13.3839949965477,-0.21,-4.15,3,18.77
2022-06-03 10:41:32.859,13.4979955852032,-0.0599999999999999,-2.94,5,25.72
2022-06-03 10:41:32.975,13.613997772336,0.13,-1.97,7,30.37
2022-06-03 10:41:33.090,13.7290041893721,-0.41,-7.2,8,65.8
2022-06-03 10:41:33.204,13.8429947197437,0,-1.58,8,29.31
2022-06-03 10:41:33.319,13.9580011367798,0.15,-2.12,6,38.92
2022-06-03 10:41:33.433,14.0720017254353,0.24,-2.04,3,28.75
2022-06-03 10:41:33.548,14.1869980841875,0.31,-1.87,1,16.38
2022-06-03 10:41:33.658,14.2969954758883,0.35,-1.87,1,10.95
2022-06-03 10:41:33.773,14.4120018929243,0.46,-1.12,2,10.11
2022-06-03 10:41:33.888,14.5269982516766,0.16,-4.08,3,31.1
2022-06-03 10:41:34.003,14.6420046687126,0.57,0.61,6,7.95
2022-06-03 10:41:34.117,14.7559951990843,0.21,-4.13,8,51.75
2022-06-03 10:41:34.231,14.8699957877398,-0.15,-5.49,9,54.23
2022-06-03 10:41:34.346,14.9850022047758,0.13,-1.59,7,35.27
2022-06-03 10:41:34.461,15.0999985635281,0.61,1,4,17.1
2022-06-03 10:41:34.576,15.2149949222803,0.52,-1.8,3,22.65
2022-06-03 10:41:34.691,15.3300013393164,0.41,-2.33,1,21.09
2022-06-03 10:41:34.805,15.4440019279718,0.46,-1.39,1,7.5
2022-06-03 10:41:34.920,15.5589982867241,0.49,-1.42,3,11.74
2022-06-03 10:41:35.035,15.6740047037601,0.26,-3.32,6,31.43
2022-06-03 10:41:35.149,15.7879952341318,1.07,4.12,8,4.65
2022-06-03 10:41:35.264,15.9030016511679,0.33,-5.3,10,67.81
2022-06-03 10:41:35.374,16.0129990428686,-0.33,-7.46,10,69.89
2022-06-03 10:41:35.489,16.1279954016209,-0.0599999999999999,-2.38,6,39.04
2022-06-03 10:41:35.603,16.2419959902763,0.1,-2.26,3,26.22
2022-06-03 10:41:35.718,16.3570024073124,0.02,-3.63,0,24.21
2022-06-03 10:41:35.833,16.4719987660646,-0.12,-4.39,1,15.75
2022-06-03 10:41:35.948,16.5869951248169,0.12,-1.85,1,11.4
2022-06-03 10:41:36.063,16.702001541853,-0.15,-5.04,5,29.63
2022-06-03 10:41:36.177,16.8160021305084,-0.01,-2.74,7,34.5
2022-06-03 10:41:36.292,16.9309984892607,0.12,-2.32,9,40.88
2022-06-03 10:41:36.407,17.0459948480129,-0.21,-5.58,9,66
2022-06-03 10:41:36.521,17.1599954366684,-0.72,-8.23,7,67.06
2022-06-03 10:41:36.636,17.2750018537045,-0.45,-3.81,4,31.49
2022-06-03 10:41:36.751,17.3899982124567,-0.28,-3.65,2,25.06
2022-06-03 10:41:36.865,17.5039988011122,-0.44,-5.64,0,29.86
2022-06-03 10:41:36.981,17.620000988245,-0.54,-5.78,1,21.28
2022-06-03 10:41:37.095,17.7340015769005,-0.51,-5.04,3,25.57
2022-06-03 10:41:37.205,17.8439989686012,-0.67,-6.56,6,43.38
2022-06-03 10:41:37.320,17.9589953273535,-0.42,-3.75,8,40.6
2022-06-03 10:41:37.434,18.0729959160089,0.17,-0.1,9,32.98
2022-06-03 10:41:37.549,18.188002333045,-0.39,-7.22,8,76.48
2022-06-03 10:41:37.664,18.3029986917973,-0.9,-8.88,5,63.16
2022-06-03 10:41:37.779,18.4179950505495,-1.03,-7.73,3,41.54
2022-06-03 10:41:37.893,18.531995639205,-1.05,-7.3,1,36
2022-06-03 10:41:38.008,18.647002056241,-1.06,-7.31,0,30.18
2022-06-03 10:41:38.122,18.7610026448965,-0.98,-6.59,1,24.94
2022-06-03 10:41:38.238,18.8769947737455,-0.6,-3.88,5,19.23
2022-06-03 10:41:38.352,18.990995362401,-1.17,-10.16,7,73.36
2022-06-03 10:41:38.466,19.1049959510565,-0.74,-4.18,9,36.06
2022-06-03 10:41:38.582,19.2209981381893,-0.53,-4.37,8,53.27
2022-06-03 10:41:38.696,19.3349987268448,-0.81,-7.58,6,60.38
2022-06-03 10:41:38.811,19.449995085597,-1.01,-7.89,4,49.08
2022-06-03 10:41:38.925,19.5639956742525,-0.92,-6.39,1,33.78
2022-06-03 10:41:39.036,19.6749988943338,-0.85,-6.17,1,23.2
2022-06-03 10:41:39.150,19.7889994829893,-0.95,-7.31,2,33.76
2022-06-03 10:41:39.265,19.9039958417416,-0.97,-6.96,4,36.28
2022-06-03 10:41:39.379,20.017996430397,-0.92,-6.5,6,44
2022-06-03 10:41:39.495,20.1339986175299,-1.26,-9.5,8,67.91
2022-06-03 10:41:39.609,20.2479992061853,-0.77,-4.06,8,40.02
2022-06-03 10:41:39.724,20.3629955649376,-0.17,-1.36,7,32.1
2022-06-03 10:41:39.839,20.4780019819736,-0.31,-5.04,5,49.9
2022-06-03 10:41:39.953,20.5920025706291,-0.56,-6.53,3,41.92
2022-06-03 10:41:40.068,20.7069989293814,-0.49,-4.79,2,24.92
2022-06-03 10:41:40.183,20.8219952881336,-0.42,-4.63,1,24.7
2022-06-03 10:41:40.297,20.9359958767891,-0.44,-5.07,3,24.04
2022-06-03 10:41:40.413,21.0519980639219,-0.01,-1.45,3,17.23
2022-06-03 10:41:40.527,21.1659986525774,-0.24,-5.27,7,38.87
2022-06-03 10:41:40.642,21.2809950113297,-0.29,-4.57,7,51.12
2022-06-03 10:41:40.752,21.3910024613142,0.27,0.1,7,19.36
2022-06-03 10:41:40.866,21.5050030499697,0.29,-2.21,6,37.65
2022-06-03 10:41:40.981,21.6199994087219,0.2,-2.97,4,34.29
2022-06-03 10:41:41.096,21.7349957674742,0.43,-0.77,3,14.37
2022-06-03 10:41:41.211,21.8500021845102,0.61,-0.29,2,12.92
2022-06-03 10:41:41.325,21.9640027731657,0.57,-1.36,3,15.55
2022-06-03 10:41:41.441,22.0799949020147,0.45,-2.23,4,25.11
2022-06-03 10:41:41.555,22.1939954906702,0.6,-0.43,7,19.11
2022-06-03 10:41:41.669,22.3079960793257,0.29,-3.64,8,51.66
2022-06-03 10:41:41.784,22.4230024963617,0.34,-1.83,7,35.21
2022-06-03 10:41:41.899,22.537998855114,0.96,2.97,7,8.19
2022-06-03 10:41:42.014,22.6529952138662,1.11,1.39,5,24.04
2022-06-03 10:41:42.128,22.7669958025217,0.9,-0.95,3,24.17
2022-06-03 10:41:42.243,22.8820022195578,0.92,0.2,2,8.54
2022-06-03 10:41:42.357,22.9960028082132,0.98,0.54,3,6.21
2022-06-03 10:41:42.468,23.1069959700108,0.96,0.16,3,15.02
2022-06-03 10:41:42.582,23.2209965586662,1.29,2.84,5,0.06
2022-06-03 10:41:42.698,23.3369987457991,1.2,0.76,7,24
2022-06-03 10:41:42.813,23.4519951045513,0.92,-1.15,7,38.6
2022-06-03 10:41:42.927,23.5659956932068,1.35,3.5,7,10.94
2022-06-03 10:41:43.042,23.6810021102428,1.37,1.83,6,25.71
2022-06-03 10:41:43.156,23.7950026988983,1.24,0.73,4,24.49
2022-06-03 10:41:43.271,23.9099990576506,1.41,2.63,3,5.33
2022-06-03 10:41:43.386,24.0249954164028,1.52,2.78,3,4.8
2022-06-03 10:41:43.501,24.1400018334389,1.34,0.85,3,16.03
2022-06-03 10:41:43.615,24.2540024220943,1.24,0.81,5,13.86
2022-06-03 10:41:43.730,24.3689987808466,1.41,2.61,6,15.02
2022-06-03 10:41:43.844,24.4829993695021,1.16,-0.13,7,33.7
2022-06-03 10:41:43.955,24.5940025895834,1.37,2.7,7,20.19
2022-06-03 10:41:44.070,24.7089989483356,1.67,4.15,6,15.71
2022-06-03 10:41:44.184,24.8229995369911,1.62,2.43,4,21.52
2022-06-03 10:41:44.299,24.9379958957434,1.43,1.17,3,17.19
2022-06-03 10:41:44.413,25.0519964843988,1.37,1.44,3,12.03
2022-06-03 10:41:44.529,25.1679986715317,1.39,1.94,3,11.34
2022-06-03 10:41:44.643,25.2819992601871,1.61,3.59,3,3.85
2022-06-03 10:41:44.758,25.3969956189394,1.55,2.17,5,13.09
2022-06-03 10:41:44.873,25.5120020359755,1.13,-0.99,6,37.1
2022-06-03 10:41:44.987,25.6260026246309,1.36,2.7,6,17.44
2022-06-03 10:41:45.102,25.7409989833832,1.4,1.99,6,24.79
2022-06-03 10:41:45.216,25.8549995720387,1.24,0.54,5,31.5
2022-06-03 10:41:45.331,25.9699959307909,1.5,3.37,4,10.94
2022-06-03 10:41:45.446,26.085002347827,1.51,2.32,3,16.35
2022-06-03 10:41:45.556,26.1949997395277,1.3,0.58,4,20.14
2022-06-03 10:41:45.671,26.30999609828,1.31,1.53,4,19.65
2022-06-03 10:41:45.786,26.425002515316,1.4,2.23,4,16.28
2022-06-03 10:41:45.901,26.5399988740683,1.35,1.42,5,21.43
2022-06-03 10:41:46.015,26.6539994627237,1.62,3.84,7,13.48
2022-06-03 10:41:46.130,26.768995821476,1.52,1.91,6,35.16
2022-06-03 10:41:46.245,26.884002238512,1.49,2.04,6,24.81
2022-06-03 10:41:46.359,26.9980028271675,1.56,2.74,4,23.11
2022-06-03 10:41:46.474,27.1129991859198,1.48,1.83,4,18.88
2022-06-03 10:41:46.589,27.227995544672,1.44,1.82,4,20.56
2022-06-03 10:41:46.703,27.3419961333275,1.61,3.33,4,13.23
2022-06-03 10:41:46.818,27.4570025503635,1.45,1.33,4,25.27
2022-06-03 10:41:46.932,27.571003139019,1.21,0.11,5,28.98
2022-06-03 10:41:47.047,27.6859994977713,1.42,2.83,6,19.14
2022-06-03 10:41:47.162,27.8009958565235,1.48,2.38,5,28.82
2022-06-03 10:41:47.273,27.9119990766048,1.49,2.21,6,23.14
2022-06-03 10:41:47.387,28.0259996652603,1.26,0.35,5,38.78
2022-06-03 10:41:47.502,28.1409960240126,1.11,0.1,4,31.77
2022-06-03 10:41:47.616,28.254996612668,1.16,1.16,4,22.89
2022-06-03 10:41:47.731,28.3700030297041,1.08,0.31,4,30.13
2022-06-03 10:41:47.846,28.4849993884563,1.2,1.61,4,22.82
2022-06-03 10:41:47.960,28.5989999771118,1.28,1.76,4,24.03
2022-06-03 10:41:48.075,28.7139963358641,1.34,1.89,5,23.76
2022-06-03 10:41:48.190,28.8290027529001,1.22,0.64,5,35.41
2022-06-03 10:41:48.304,28.9430033415556,0.98,-0.72,5,39.64
2022-06-03 10:41:48.419,29.0579997003078,0.86,-0.7,4,38.3
2022-06-03 10:41:48.534,29.1729960590601,0.91,0.28,4,28.92
2022-06-03 10:41:48.648,29.2869966477156,0.88,-0.24,4,34.47
2022-06-03 10:41:48.763,29.4020030647516,1.07,1.44,4,25.76
2022-06-03 10:41:48.873,29.5120004564524,1.73,6.01,4,5.33
2022-06-03 10:41:48.988,29.6269968152046,2.09,5.97,5,11.34
2022-06-03 10:41:49.103,29.7420032322407,2.06,4.15,6,25.21
2022-06-03 10:41:49.218,29.8569995909929,1.96,3.51,5,29.79
2022-06-03 10:41:49.333,29.9719959497452,2.17,5.59,5,12.47
2022-06-03 10:41:49.447,30.0859965384007,2.62,8.35,5,2.67
